This demonstration page uses our WeatherBlox Daily Observations layout. Learn more.

Left ArrowRight Arrow

31.84235, -102.49876

Hourly Observations for June 16, 2022

Temp ( °F °C ) Dew Point ( °F °C ) Humidity (%) Winds ( mph kmh ) Pressure ( in mb ) Visibility ( mi km ) Precip ( " mm )
12:53 am 00:53 Clear 84 28.9 57 13.9 40 40 S 12 19 29.86 1011 10 16 0.00 0.00
1:53 am 01:53 Clear 83 28.3 57 13.9 41 41 SSE 13 20 29.85 1011 10 16 0.00 0.00
2:53 am 02:53 Clear 82 27.8 57 13.9 42 42 S 16 26 29.84 1011 10 16 0.00 0.00
3:53 am 03:53 Clear 81 27.2 59 15 47 47 S 15 24 29.84 1011 10 16 0.00 0.00
4:53 am 04:53 Clear 80 26.7 60 15.6 51 51 S 17 28 29.85 1011 10 16 0.00 0.00
5:53 am 05:53 Clear 79 26.1 61 16.1 54 54 S 16 26 29.86 1011 9 14 0.00 0.00
6:53 am 06:53 Sunny 77 25 61 16.1 58 58 SSE 14 22 29.89 1012 7 11 0.00 0.00
7:53 am 07:53 Sunny 77 25 61 16.1 58 58 S 18 30 29.91 1013 7 11 0.00 0.00
8:53 am 08:53 Sunny 79 26.1 61 16.1 54 54 SSE 16 26 29.94 1014 7 11 0.00 0.00
9:53 am 09:53 Sunny 81 27.2 62 16.7 53 53 SSE 18 30 29.95 1014 7 11 0.00 0.00
10:53 am 10:53 Sunny 84 28.9 61 16.1 46 46 SE 18 30 29.94 1014 8 13 0.00 0.00
11:53 am 11:53 Sunny 87 30.6 59 15 39 39 S 14 22 29.93 1014 8 13 0.00 0.00
12:53 pm 12:53 Sunny 91 32.8 58 14.4 33 33 SE 16 26 29.93 1013 9 14 0.00 0.00
1:53 pm 13:53 Sunny 92 33.3 58 14.4 32 32 SSE 16 26 29.92 1013 9 14 0.00 0.00
2:53 pm 14:53 Sunny 95 35 55 12.8 26 26 S 20 31 29.90 1013 10 16 0.00 0.00
3:53 pm 15:53 Sunny 96 35.6 54 12.2 24 24 SE 21 33 29.88 1012 10 16 0.00 0.00
4:53 pm 16:53 Sunny 98 36.7 50 10 20 20 SSE 24 39 29.85 1011 10 16 0.00 0.00
5:53 pm 17:53 Sunny 98 36.7 48 8.9 18 18 S 18 30 29.84 1011 10 16 0.00 0.00
6:53 pm 18:53 Sunny 96 35.6 46 7.8 18 18 SSE 20 31 29.83 1010 10 16 0.00 0.00
7:53 pm 19:53 Sunny 94 34.4 43 6.1 17 17 SSE 21 33 29.85 1011 10 16 0.00 0.00
8:53 pm 20:53 Sunny 92 33.3 43 6.1 18 18 SSE 21 33 29.86 1011 10 16 0.00 0.00
9:53 pm 21:53 Clear 89 31.7 42 5.6 19 19 SSE 16 26 29.88 1012 10 16 0.00 0.00
10:53 pm 22:53 Clear 87 30.6 46 7.8 24 24 SSE 14 22 29.91 1013 10 16 0.00 0.00
11:53 pm 23:53 Clear 86 30 47 8.3 26 26 SSE 15 24 29.93 1014 10 16 0.00 0.00

Powered by AerisWeather